DW9918 Weather Reports


Display with metric or nautical units.
time (UTC)temp
F
wind
direction
speed
MPH
gust
MPH
rain 1hr
in
rain 24hr
in
rain mn
in
humidity
%
barometer
mb
20260906193128 78 154 0.0 0.0 0.00 0.00 0.00 73 1022.4
20260906193005 77 154 0.0 0.0 0.00 0.00 0.00 73 1022.3
20260906192126 78 154 0.0 0.0 0.00 0.00 0.00 72 1022.3
20260906191525 78 154 0.0 0.0 0.00 0.00 0.00 72 1022.3
20260906191134 79 154 0.0 0.0 0.00 0.00 0.00 72 1022.3
20260906190141 78 154 0.0 0.0 0.00 0.00 0.00 73 1022.3
20260906190025 77 154 0.0 0.0 0.00 0.00 0.00 72 1022.3
20260906185126 78 154 0.0 0.0 0.00 0.00 0.00 73 1022.1
20260906184518 78 167 0.0 1.0 0.00 0.00 0.00 72 1022.0
20260906184130 78 103 0.0 1.0 0.00 0.00 0.00 73 1022.0
20260906183202 79 103 0.0 1.0 0.00 0.00 0.00 72 1022.0
20260906183038 78 103 0.0 1.0 0.00 0.00 0.00 72 1021.8
20260906182133 79 87 0.0 1.0 0.00 0.00 0.00 72 1021.9
20260906181516 79 86 1.0 3.0 0.00 0.00 0.00 71 1021.7
20260906181148 79 86 1.0 3.0 0.00 0.00 0.00 72 1021.8
20260906180133 80 89 3.0 4.0 0.00 0.00 0.00 71 1021.7
20260906180008 80 91 3.0 4.0 0.00 0.00 0.00 70 1021.6
20260906175137 80 86 3.0 4.0 0.00 0.00 0.00 71 1021.7
20260906174528 80 94 3.0 4.0 0.00 0.00 0.00 70 1021.7
20260906174134 81 92 2.0 4.0 0.00 0.00 0.00 71 1021.6
20260906173136 81 90 2.0 4.0 0.00 0.00 0.00 71 1021.6
20260906173027 80 89 2.0 4.0 0.00 0.00 0.00 71 1021.5
20260906172138 81 89 3.0 5.0 0.00 0.00 0.00 71 1021.4
20260906171524 81 88 4.0 6.0 0.00 0.00 0.00 70 1021.5
20260906171127 82 89 5.0 6.0 0.00 0.00 0.00 71 1021.5
20260906170135 82 96 5.0 8.0 0.00 0.00 0.00 70 1021.5
20260906170024 81 92 5.0 8.0 0.00 0.00 0.00 70 1021.5
20260906165137 82 84 6.0 8.0 0.00 0.00 0.00 69 1021.4
20260906164514 82 85 6.0 8.0 0.00 0.00 0.00 68 1021.4
20260906164126 82 91 6.0 8.0 0.00 0.00 0.00 68 1021.5
20260906163155 83 91 7.0 10.0 0.00 0.00 0.00 69 1021.5
20260906163012 82 89 8.0 10.0 0.00 0.00 0.00 67 1021.5
20260906162140 83 84 8.0 10.0 0.00 0.00 0.00 68 1021.5
20260906161532 82 91 7.0 11.0 0.00 0.00 0.00 67 1021.5
20260906161132 83 73 8.0 12.0 0.00 0.00 0.00 67 1021.5
20260906160132 83 94 8.0 9.0 0.00 0.00 0.00 69 1021.5
20260906160032 82 86 6.0 10.0 0.00 0.00 0.00 67 1021.5
20260906155132 83 60 7.0 12.0 0.00 0.00 0.00 68 1021.4
20260906154526 83 77 9.0 12.0 0.00 0.00 0.00 66 1021.5
20260906154140 83 91 9.0 12.0 0.00 0.00 0.00 66 1021.5
20260906153129 84 91 8.0 15.0 0.00 0.00 0.00 66 1021.5
20260906153021 83 85 6.0 15.0 0.00 0.00 0.00 66 1021.6
20260906152141 84 90 6.0 11.0 0.00 0.00 0.00 66 1021.6
20260906151527 83 90 6.0 12.0 0.00 0.00 0.00 65 1021.6
20260906151136 84 81 7.0 12.0 0.00 0.00 0.00 64 1021.6
20260906150140 84 129 10.0 15.0 0.00 0.00 0.00 61 1021.6
20260906150016 83 84 11.0 15.0 0.00 0.00 0.00 60 1021.7
20260906145129 84 94 11.0 14.0 0.00 0.00 0.00 61 1021.6
20260906144531 84 98 5.0 11.0 0.00 0.00 0.00 61 1021.7
20260906144140 85 68 7.0 11.0 0.00 0.00 0.00 61 1021.7
20260906143128 85 86 7.0 13.0 0.00 0.00 0.00 63 1021.7
20260906143032 84 94 7.0 13.0 0.00 0.00 0.00 62 1021.7
20260906142141 85 89 7.0 12.0 0.00 0.00 0.00 60 1021.6
20260906141530 84 91 9.0 14.0 0.00 0.00 0.00 58 1021.7
20260906141135 85 83 8.0 14.0 0.00 0.00 0.00 57 1021.6
20260906140148 85 70 8.0 13.0 0.00 0.00 0.00 62 1021.7
20260906140035 85 82 7.0 13.0 0.00 0.00 0.00 60 1021.7
20260906135200 85 82 8.0 13.0 0.00 0.00 0.00 59 1021.7
20260906134504 85 88 7.0 12.0 0.00 0.00 0.00 58 1021.7
20260906134126 85 92 7.0 12.0 0.00 0.00 0.00 57 1021.8
20260906133140 85 98 5.0 15.0 0.00 0.00 0.00 60 1021.9
20260906133003 84 58 6.0 15.0 0.00 0.00 0.00 58 1021.9
20260906132145 85 99 5.0 12.0 0.00 0.00 0.00 60 1021.8
20260906131503 84 93 9.0 16.0 0.00 0.00 0.00 60 1021.9
20260906131130 85 90 9.0 16.0 0.00 0.00 0.00 57 1021.9
20260906130135 85 87 8.0 12.0 0.00 0.00 0.00 60 1022.0
20260906130018 84 82 9.0 12.0 0.00 0.00 0.00 58 1021.9
20260906125124 84 42 6.0 15.0 0.00 0.00 0.00 61 1021.9
20260906124507 84 100 11.0 14.0 0.00 0.00 0.00 62 1021.8
20260906124132 85 95 9.0 14.0 0.00 0.00 0.00 59 1021.9
20260906123135 85 37 10.0 14.0 0.00 0.00 0.00 61 1021.9
20260906123004 84 81 9.0 15.0 0.00 0.00 0.00 61 1021.8
20260906122136 85 79 7.0 14.0 0.00 0.00 0.00 61 1021.8
20260906121513 84 97 8.0 17.0 0.00 0.00 0.00 62 1021.8
20260906121133 84 86 12.0 17.0 0.00 0.00 0.00 61 1021.8
20260906120133 85 70 8.0 14.0 0.00 0.00 0.00 63 1021.9
20260906120005 84 27 6.0 15.0 0.00 0.00 0.00 63 1021.8
20260906115136 85 89 8.0 14.0 0.00 0.00 0.00 62 1022.0
20260906114504 84 38 8.0 15.0 0.00 0.00 0.00 65 1022.0
20260906114128 85 85 9.0 14.0 0.00 0.00 0.00 63 1022.0
20260906113153 84 79 11.0 14.0 0.00 0.00 0.00 62 1022.1
20260906113035 84 94 10.0 15.0 0.00 0.00 0.00 61 1022.1
20260906112134 84 91 9.0 15.0 0.00 0.00 0.00 63 1022.2
20260906111513 84 89 12.0 15.0 0.00 0.00 0.00 64 1022.2
20260906111125 84 44 8.0 15.0 0.00 0.00 0.00 62 1022.1
20260906110135 84 90 10.0 15.0 0.00 0.00 0.00 62 1022.1
20260906110007 84 97 13.0 15.0 0.00 0.00 0.00 62 1022.2
20260906105132 84 56 8.0 12.0 0.00 0.00 0.00 63 1022.2
20260906104509 83 77 7.0 15.0 0.00 0.00 0.00 63 1022.3
20260906104142 84 127 9.0 15.0 0.00 0.00 0.00 64 1022.2
20260906103154 84 41 7.0 13.0 0.00 0.00 0.00 64 1022.2
20260906103005 84 44 9.0 13.0 0.00 0.00 0.00 63 1022.3
20260906102141 84 91 8.0 16.0 0.00 0.00 0.00 63 1022.2
20260906101523 83 43 8.0 16.0 0.00 0.00 0.00 63 1022.2
20260906101127 84 34 8.0 17.0 0.00 0.00 0.00 66 1022.2
20260906100126 84 62 7.0 15.0 0.00 0.00 0.00 65 1022.1
20260906100020 83 65 6.0 15.0 0.00 0.00 0.00 65 1022.2
20260906095156 84 67 8.0 14.0 0.00 0.00 0.00 64 1022.2
20260906094512 83 44 7.0 15.0 0.00 0.00 0.00 65 1022.3
20260906094201 84 94 9.0 15.0 0.00 0.00 0.00 66 1022.2
20260906093126 84 84 8.0 15.0 0.00 0.00 0.00 65 1022.2
20260906093009 83 120 7.0 14.0 0.00 0.00 0.00 64 1022.2
20260906092127 84 82 8.0 14.0 0.00 0.00 0.00 64 1022.2
20260906091513 83 82 7.0 14.0 0.00 0.00 0.00 66 1022.3
20260906091126 83 96 9.0 14.0 0.00 0.00 0.00 66 1022.3
20260906090128 83 88 8.0 13.0 0.00 0.00 0.00 65 1022.2
20260906090005 83 91 10.0 13.0 0.00 0.00 0.00 64 1022.3
20260906085202 83 91 9.0 12.0 0.00 0.00 0.00 67 1022.1
20260906084531 82 104 7.0 14.0 0.00 0.00 0.00 66 1022.2
20260906084132 83 94 8.0 14.0 0.00 0.00 0.00 66 1022.1
20260906083132 83 94 9.0 14.0 0.00 0.00 0.00 65 1022.0
20260906083022 83 108 8.0 14.0 0.00 0.00 0.00 67 1022.1
20260906082134 83 87 7.0 13.0 0.00 0.00 0.00 69 1022.0
20260906081543 82 87 9.0 14.0 0.00 0.00 0.00 67 1022.0
20260906081126 83 66 7.0 13.0 0.00 0.00 0.00 67 1021.9
20260906080130 83 87 4.0 12.0 0.00 0.00 0.00 70 1021.8
20260906080014 83 82 6.0 12.0 0.00 0.00 0.00 69 1021.9
20260906075128 84 90 0.0 3.0 0.00 0.00 0.00 71 1021.8
20260906074512 83 84 2.0 4.0 0.00 0.00 0.00 72 1021.7
20260906074159 83 82 2.0 4.0 0.00 0.00 0.00 73 1021.7
20260906073152 83 91 1.0 3.0 0.00 0.00 0.00 74 1021.7
20260906073005 82 98 0.0 3.0 0.00 0.00 0.00 75 1021.6
20260906072130 81 244 0.0 1.0 0.00 0.00 0.00 80 1021.6
20260906071526 79 238 0.0 1.0 0.00 0.00 0.00 81 1021.5
20260906071129 79 281 0.0 1.0 0.00 0.00 0.00 82 1021.5
20260906070027 77 288 0.0 2.0 0.00 0.00 0.00 85 1021.3
20260906065132 77 281 1.0 2.0 0.00 0.00 0.00 86 1021.3
20260906064520 76 246 0.0 2.0 0.00 0.00 0.00 86 1021.3
20260906064124 76 241 1.0 2.0 0.00 0.00 0.00 86 1021.3
20260906063127 75 267 0.0 2.0 0.00 0.00 0.00 88 1021.2
20260906063017 74 267 0.0 2.0 0.00 0.00 0.00 88 1021.1
20260906062139 74 224 1.0 2.0 0.00 0.00 0.00 89 1021.2
20260906061516 73 260 1.0 2.0 0.00 0.00 0.00 88 1021.1
20260906061147 74 230 1.0 2.0 0.00 0.00 0.00 89 1021.1
20260906060137 73 233 1.0 3.0 0.00 0.00 0.00 89 1021.0
20260906060019 72 225 2.0 3.0 0.00 0.00 0.00 89 1021.0
20260906055151 73 232 2.0 4.0 0.00 0.00 0.00 90 1021.0
20260906054535 72 229 1.0 3.0 0.00 0.00 0.00 89 1020.9
20260906054217 72 232 2.0 3.0 0.00 0.00 0.00 90 1020.8
20260906053133 72 223 1.0 2.0 0.00 0.00 0.00 91 1020.6
20260906053033 71 203 0.0 2.0 0.00 0.00 0.00 90 1020.6
20260906052137 72 228 1.0 2.0 0.00 0.00 0.00 91 1020.5
20260906051523 71 221 0.0 3.0 0.00 0.00 0.00 91 1020.5
20260906051135 72 231 2.0 3.0 0.00 0.00 0.00 92 1020.5
20260906050126 72 237 1.0 3.0 0.00 0.00 0.00 92 1020.4
20260906050032 71 234 1.0 3.0 0.00 0.00 0.00 92 1020.4
20260906045135 72 221 2.0 3.0 0.00 0.00 0.00 91 1020.2
20260906044532 72 229 1.0 3.0 0.00 0.00 0.00 89 1020.2
20260906044137 73 257 0.0 1.0 0.00 0.00 0.00 91 1020.1
20260906043127 74 258 0.0 0.0 0.00 0.00 0.00 91 1020.1
20260906043010 73 258 0.0 0.0 0.00 0.00 0.00 91 1020.0
20260906042128 74 258 0.0 1.0 0.00 0.00 0.00 91 1019.8
20260906041534 73 255 0.0 1.0 0.00 0.00 0.00 91 1019.8
20260906041133 74 255 0.0 1.0 0.00 0.00 0.00 91 1019.8
20260906040143 74 267 1.0 1.0 0.00 0.00 0.00 90 1019.7
20260906040034 74 268 0.0 1.0 0.00 0.00 0.00 88 1019.7
20260906035155 76 45 0.0 0.0 0.00 0.00 0.00 89 1019.6
20260906034531 75 44 0.0 1.0 0.00 0.00 0.00 89 1019.5
20260906034134 76 44 0.0 1.0 0.00 0.00 0.00 89 1019.4
20260906033131 76 44 0.0 0.0 0.00 0.00 0.00 89 1019.5
20260906033037 76 44 0.0 0.0 0.00 0.00 0.00 89 1019.4
20260906032137 76 44 0.0 2.0 0.00 0.00 0.00 89 1019.4
20260906031518 76 39 1.0 2.0 0.00 0.00 0.00 88 1019.4
20260906031131 77 41 1.0 2.0 0.00 0.00 0.00 89 1019.4
20260906030139 76 41 2.0 3.0 0.00 0.00 0.00 89 1019.3
20260906030015 76 43 2.0 3.0 0.00 0.00 0.00 88 1019.3
20260906025127 76 48 1.0 3.0 0.00 0.00 0.00 88 1019.3
20260906024532 75 40 2.0 3.0 0.00 0.00 0.00 87 1019.4
20260906024152 76 41 2.0 3.0 0.00 0.00 0.00 88 1019.3
20260906023144 75 32 1.0 2.0 0.00 0.00 0.00 88 1019.3
20260906023035 75 26 1.0 2.0 0.00 0.00 0.00 88 1019.3
20260906022138 75 21 0.0 2.0 0.00 0.00 0.00 89 1019.3
20260906021531 75 22 1.0 3.0 0.00 0.00 0.00 89 1019.3
20260906021130 75 18 2.0 3.0 0.00 0.00 0.00 90 1019.2
20260906020137 75 345 2.0 2.0 0.00 0.00 0.00 91 1019.1
20260906020027 74 345 1.0 2.0 0.00 0.00 0.00 90 1019.1
20260906015132 75 359 1.0 2.0 0.00 0.00 0.00 91 1019.0
20260906014531 74 349 0.0 1.0 0.00 0.00 0.00 91 1019.0
20260906014130 74 349 0.0 2.0 0.00 0.00 0.00 91 1019.0
20260906013205 74 20 1.0 2.0 0.00 0.00 0.00 93 1018.9
20260906013024 73 4 0.0 2.0 0.00 0.00 0.00 92 1018.9
20260906011539 72 354 3.0 5.0 0.00 0.00 0.00 90 1018.9
20260906011143 73 355 3.0 5.0 0.00 0.00 0.00 90 1018.8
20260906010133 73 246 0.0 3.0 0.00 0.00 0.00 87 1018.7
20260906010036 72 246 1.0 3.0 0.00 0.00 0.00 88 1018.6
20260906005134 74 223 2.0 3.0 0.00 0.00 0.00 89 1018.7
20260906004506 73 215 2.0 3.0 0.00 0.00 0.00 89 1018.7
20260906004137 74 230 1.0 2.0 0.00 0.00 0.00 88 1018.6
20260906003137 76 68 0.0 0.0 0.00 0.00 0.00 88 1018.6
20260906003006 75 68 0.0 0.0 0.00 0.00 0.00 87 1018.7
20260906002139 76 68 0.0 0.0 0.00 0.00 0.00 88 1018.7
20260906001504 76 68 0.0 0.0 0.00 0.00 0.00 88 1018.8
20260906001133 77 68 0.0 0.0 0.00 0.00 0.00 88 1018.7
20260906000142 77 67 0.0 0.0 0.00 0.00 0.00 88 1018.7
20260906000004 76 67 0.0 0.0 0.00 0.00 0.00 88 1018.7
20260905235136 77 67 0.0 0.0 0.00 0.00 0.00 87 1018.7
20260905234507 77 67 0.0 0.0 0.00 0.00 0.00 86 1018.8
20260905234129 78 68 0.0 0.0 0.00 0.00 0.00 87 1018.6
20260905233136 78 68 0.0 0.0 0.00 0.00 0.00 87 1018.6
20260905233005 77 68 0.0 0.0 0.00 0.00 0.00 86 1018.6
20260905232139 78 66 0.0 1.0 0.00 0.00 0.00 86 1018.6
20260905231504 77 68 0.0 2.0 0.00 0.00 0.00 85 1018.7
20260905231153 78 69 0.0 3.0 0.00 0.00 0.00 86 1018.6
20260905230008 77 61 0.0 2.0 0.00 0.00 0.00 85 1018.7
20260905225154 78 46 1.0 2.0 0.00 0.00 0.00 85 1018.6
20260905224508 77 34 1.0 3.0 0.00 0.00 0.00 84 1018.6
20260905224129 78 34 0.0 4.0 0.00 0.00 0.00 84 1018.5
20260905223134 78 10 1.0 2.0 0.00 0.00 0.00 83 1018.6
20260905223006 77 17 1.0 2.0 0.00 0.00 0.00 83 1018.6
20260905222148 78 86 0.0 2.0 0.00 0.00 0.00 83 1018.4
20260905221513 78 40 1.0 2.0 0.00 0.00 0.00 82 1018.5
20260905221133 79 84 0.0 2.0 0.00 0.00 0.00 82 1018.3
20260905220140 78 86 0.0 2.0 0.00 0.00 0.00 82 1018.3
20260905220010 78 60 0.0 2.0 0.00 0.00 0.00 81 1018.3
20260905215131 79 94 1.0 2.0 0.00 0.00 0.00 82 1018.2
20260905214513 78 88 0.0 1.0 0.00 0.00 0.00 82 1018.2
20260905214127 78 89 0.0 1.0 0.00 0.00 0.00 82 1018.1
20260905213128 79 93 0.0 3.0 0.00 0.00 0.00 81 1018.1
20260905213012 78 91 0.0 4.0 0.00 0.00 0.00 81 1018.2
20260905212134 79 82 3.0 4.0 0.00 0.00 0.00 81 1018.0
20260905211511 78 86 2.0 4.0 0.00 0.00 0.00 80 1018.0
20260905211139 79 84 2.0 4.0 0.00 0.00 0.00 80 1018.0
20260905210127 79 79 5.0 5.0 0.00 0.00 0.00 80 1017.9
20260905210011 78 84 5.0 5.0 0.00 0.00 0.00 79 1018.0
20260905205132 79 91 4.0 5.0 0.00 0.00 0.00 79 1018.0
20260905204517 79 87 3.0 5.0 0.00 0.00 0.00 77 1018.0
20260905204135 80 77 3.0 5.0 0.00 0.00 0.00 78 1018.0
20260905203138 80 83 2.0 5.0 0.00 0.00 0.00 77 1018.0
20260905203014 79 84 2.0 5.0 0.00 0.00 0.00 76 1018.0
20260905202134 80 79 4.0 4.0 0.00 0.00 0.00 76 1018.0
20260905201512 80 91 3.0 4.0 0.00 0.00 0.00 75 1017.9
20260905201139 80 88 3.0 4.0 0.00 0.00 0.00 75 1018.0
20260905200133 80 84 3.0 4.0 0.00 0.00 0.00 75 1017.9
20260905200015 79 82 3.0 4.0 0.00 0.00 0.00 74 1017.8
20260905195139 80 82 4.0 4.0 0.00 0.00 0.00 75 1017.8
20260905194516 79 90 2.0 3.0 0.00 0.00 0.00 73 1017.7
20260905194144 80 92 2.0 2.0 0.00 0.00 0.00 73 1017.8